Le nostre stazioni meteo in Italia

Pubblicità
Il mio iltempo24.it
Capo Frasca, Italia (16539): Temperatura & dewpoint: 14.02.2017 16:00:00 - 20.02.2017 16:00:00 (CET)Capo Frasca, Italia (16539): velocità del vento: 14.02.2017 16:00:00 - 20.02.2017 16:00:00 (CET)Capo Frasca, Italia (16539): direzione del vento: 14.02.2017 16:00:00 - 20.02.2017 16:00:00 (CET)Capo Frasca, Italia (16539): reduced air pressure: 14.02.2017 16:00:00 - 20.02.2017 16:00:00 (CET)Capo Frasca, Italia (16539): visibility: 14.02.2017 16:00:00 - 20.02.2017 16:00:00 (CET)
Data & Tempo tt [°C] td [°C] ff [km/h] ff [kn] dd ppp [hPa] vv [km]
20.02.2017 16:00:00 15,0 12,7 15 8 O 1024,1 20
20.02.2017 15:00:00 - - - - - - -
20.02.2017 14:00:00 - - - - - - -
20.02.2017 13:00:00 14,0 12,1 15 8 OSO 1025,4 20
20.02.2017 12:00:00 - - - - - - -
20.02.2017 11:00:00 - - - - - - -
20.02.2017 10:00:00 11,0 10,1 8 4 S 1025,6 20
20.02.2017 09:00:00 - - - - - - -
20.02.2017 08:00:00 - - - - - - -
20.02.2017 07:00:00 4,8 4,1 11 6 ENE 1024,9 20
20.02.2017 06:00:00 - - - - - - -
20.02.2017 05:00:00 - - - - - - -
20.02.2017 04:00:00 - - - - - - -
20.02.2017 03:00:00 - - - - - - -
20.02.2017 02:00:00 - - - - - - -
20.02.2017 01:00:00 - - - - - - -
20.02.2017 00:00:00 - - - - - - -
19.02.2017 23:00:00 - - - - - - -
19.02.2017 22:00:00 - - - - - - -
19.02.2017 21:00:00 - - - - - - -
19.02.2017 20:00:00 - - - - - - -
19.02.2017 19:00:00 12,6 11,7 15 8 NO 1022,5 25
19.02.2017 18:00:00 - - - - - - -
19.02.2017 17:00:00 - - - - - - -
19.02.2017 16:00:00 - - - - - - -
19.02.2017 15:00:00 - - - - - - -
19.02.2017 14:00:00 - - - - - - -
19.02.2017 13:00:00 14,8 8,3 9 5 NE 1024,4 25
19.02.2017 12:00:00 - - - - - - -
19.02.2017 11:00:00 - - - - - - -
19.02.2017 10:00:00 - - - - - - -
19.02.2017 09:00:00 - - - - - - -
19.02.2017 08:00:00 - - - - - - -
19.02.2017 07:00:00 7,4 6,5 13 7 NE 1023,5 20
19.02.2017 06:00:00 - - - - - - -
19.02.2017 05:00:00 - - - - - - -
19.02.2017 04:00:00 - - - - - - -
19.02.2017 03:00:00 - - - - - - -
19.02.2017 02:00:00 - - - - - - -
19.02.2017 01:00:00 - - - - - - -
19.02.2017 00:00:00 - - - - - - -
18.02.2017 23:00:00 - - - - - - -
18.02.2017 22:00:00 - - - - - - -
18.02.2017 21:00:00 - - - - - - -
18.02.2017 20:00:00 - - - - - - -
18.02.2017 19:00:00 12,0 11,4 11 6 NO 1021,5 15
18.02.2017 18:00:00 - - - - - - -
18.02.2017 17:00:00 - - - - - - -
18.02.2017 16:00:00 - - - - - - -
18.02.2017 15:00:00 - - - - - - -
18.02.2017 14:00:00 - - - - - - -
18.02.2017 13:00:00 14,0 11,7 11 6 ONO 1023,3 25
18.02.2017 12:00:00 - - - - - - -
18.02.2017 11:00:00 - - - - - - -
18.02.2017 10:00:00 - - - - - - -
18.02.2017 09:00:00 - - - - - - -
18.02.2017 08:00:00 - - - - - - -
18.02.2017 07:00:00 9,4 8,5 2 1 NNO 1023,4 20
18.02.2017 06:00:00 - - - - - - -
18.02.2017 05:00:00 - - - - - - -
18.02.2017 04:00:00 - - - - - - -
18.02.2017 03:00:00 - - - - - - -
18.02.2017 02:00:00 - - - - - - -
18.02.2017 01:00:00 - - - - - - -
18.02.2017 00:00:00 - - - - - - -
17.02.2017 23:00:00 - - - - - - -
17.02.2017 22:00:00 - - - - - - -
17.02.2017 21:00:00 - - - - - - -
17.02.2017 20:00:00 - - - - - - -
17.02.2017 19:00:00 12,4 11,8 8 4 ONO 1025,5 15
17.02.2017 18:00:00 - - - - - - -
17.02.2017 17:00:00 - - - - - - -
17.02.2017 16:00:00 14,4 13,0 13 7 O 1026,3 18
17.02.2017 15:00:00 - - - - - - -
17.02.2017 14:00:00 - - - - - - -
17.02.2017 13:00:00 13,8 12,7 9 5 OSO 1027,7 18
17.02.2017 12:00:00 - - - - - - -
17.02.2017 11:00:00 - - - - - - -
17.02.2017 10:00:00 11,0 10,2 9 5 ESE 1029,2 8
17.02.2017 09:00:00 - - - - - - -
17.02.2017 08:00:00 - - - - - - -
17.02.2017 07:00:00 6,8 6,2 8 4 E 1029,1 15
17.02.2017 06:00:00 - - - - - - -
17.02.2017 05:00:00 - - - - - - -
17.02.2017 04:00:00 - - - - - - -
17.02.2017 03:00:00 - - - - - - -
17.02.2017 02:00:00 - - - - - - -
17.02.2017 01:00:00 - - - - - - -
17.02.2017 00:00:00 - - - - - - -
16.02.2017 23:00:00 - - - - - - -
16.02.2017 22:00:00 - - - - - - -
16.02.2017 21:00:00 - - - - - - -
16.02.2017 20:00:00 - - - - - - -
16.02.2017 19:00:00 11,0 10,4 8 4 ONO 1031,1 20
16.02.2017 18:00:00 - - - - - - -
16.02.2017 17:00:00 - - - - - - -
16.02.2017 16:00:00 14,8 14,0 13 7 NNO 1031,5 25
16.02.2017 15:00:00 - - - - - - -
16.02.2017 14:00:00 - - - - - - -
16.02.2017 13:00:00 15,2 13,2 9 5 NNO 1033,3 25
16.02.2017 12:00:00 - - - - - - -
16.02.2017 11:00:00 - - - - - - -
16.02.2017 10:00:00 11,4 10,6 11 6 ESE 1033,7 20
16.02.2017 09:00:00 - - - - - - -
16.02.2017 08:00:00 - - - - - - -
16.02.2017 07:00:00 8,0 7,3 9 5 ESE 1033,3 15
16.02.2017 06:00:00 - - - - - - -
16.02.2017 05:00:00 - - - - - - -
16.02.2017 04:00:00 - - - - - - -
16.02.2017 03:00:00 - - - - - - -
16.02.2017 02:00:00 - - - - - - -
16.02.2017 01:00:00 - - - - - - -
16.02.2017 00:00:00 - - - - - - -
15.02.2017 23:00:00 - - - - - - -
15.02.2017 22:00:00 - - - - - - -
15.02.2017 21:00:00 - - - - - - -
15.02.2017 20:00:00 - - - - - - -
15.02.2017 19:00:00 13,6 13,6 8 4 NNE 1033,3 20
15.02.2017 18:00:00 - - - - - - -
15.02.2017 17:00:00 - - - - - - -
15.02.2017 16:00:00 17,0 14,8 11 6 ONO 1032,9 20
15.02.2017 15:00:00 - - - - - - -
15.02.2017 14:00:00 - - - - - - -
15.02.2017 13:00:00 18,0 13,7 22 12 ESE 1033,4 20
15.02.2017 12:00:00 - - - - - - -
15.02.2017 11:00:00 - - - - - - -
15.02.2017 10:00:00 14,0 12,7 13 7 ESE 1033,3 20
15.02.2017 09:00:00 - - - - - - -
15.02.2017 08:00:00 - - - - - - -
15.02.2017 07:00:00 11,0 10,2 22 12 E 1031,7 20
15.02.2017 06:00:00 - - - - - - -
15.02.2017 05:00:00 - - - - - - -
15.02.2017 04:00:00 - - - - - - -
15.02.2017 03:00:00 - - - - - - -
15.02.2017 02:00:00 - - - - - - -
15.02.2017 01:00:00 - - - - - - -
15.02.2017 00:00:00 - - - - - - -
14.02.2017 23:00:00 - - - - - - -
14.02.2017 22:00:00 - - - - - - -
14.02.2017 21:00:00 - - - - - - -
14.02.2017 20:00:00 - - - - - - -
14.02.2017 19:00:00 14,4 14,1 21 11 SE 1026,5 20
14.02.2017 18:00:00 - - - - - - -
14.02.2017 17:00:00 - - - - - - -
14.02.2017 16:00:00 16,6 14,8 28 15 SE 1025,1 20

tt = Temperatura
td = dewpoint
ff = velocità del vento
dd = direzione del vento
ppp = reduced air pressure
vv = visibility

Stazioni seguenti

WeatherPro
AMSI
MeteoEarth